Location: Pinon Hills
(34.4429°N, 117.6403°W)
Time: 07:27:25
(UTC-07:00)

Uosat F - Visible Passes

Search period start: 28 April 2015 00:00
Search period end: 08 May 2015 00:00
Orbit: 750 x 762 km, 98.7° (Epoch: 27 April)

Date Brightness Start Highest point End Pass type
(mag) Time Alt. Az. Time Alt. Az. Time Alt. Az.
28 Apr 13.3 04:55:40 10° NE 04:59:43 25° E 05:03:53 10° SSE visible
30 Apr 12.5 05:15:20 10° NNE 05:20:02 41° E 05:24:45 10° S visible
01 May 13.8 04:37:31 10° ENE 04:40:24 16° E 04:43:31 10° SE visible
03 May 13.3 04:56:42 10° NE 05:00:46 26° E 05:04:58 10° SSE visible
05 May 12.5 05:16:22 10° NNE 05:21:05 41° E 05:25:49 10° S visible
06 May 13.8 04:38:31 10° NE 04:41:27 16° E 04:44:36 10° SE visible
